Location: Cannon
(33.4387°N, 96.4839°W)
Time: 01:11:27
(UTC+00:00)

Hubble Space Telescope - Visible Passes

Search period start: 09 November 2024 00:00
Search period end: 19 November 2024 00:00
Orbit: 501 x 505 km, 28.5° (Epoch: 08 November)

Date Brightness Start Highest point End Pass type
(mag) Time Alt. Az. Time Alt. Az. Time Alt. Az.
09 Nov 3.2 12:22:51 10° SSW 12:25:32 18° SSE 12:28:13 10° ESE visible
10 Nov 3.0 12:00:26 10° SSW 12:03:16 19° SSE 12:06:05 10° ESE visible
11 Nov 2.8 11:38:01 10° SSW 11:40:58 20° SSE 11:43:55 10° ESE visible
12 Nov 2.7 11:16:57 17° SSW 11:18:38 22° SSE 11:21:42 10° ESE visible
13 Nov 2.5 10:56:13 23° SSE 10:56:17 23° SSE 10:59:27 10° ESE visible
14 Nov 3.0 10:35:21 20° SE 10:35:21 20° SE 10:37:08 10° ESE visible
14 Nov 1.7 12:10:14 10° WSW 12:13:55 39° S 12:17:35 10° ESE visible
15 Nov 3.8 10:14:24 12° ESE 10:14:24 12° ESE 10:14:48 10° ESE visible
15 Nov 1.6 11:49:00 18° WSW 11:51:31 39° S 11:55:12 10° ESE visible
16 Nov 1.5 11:27:58 31° SW 11:29:05 40° S 11:32:46 10° ESE visible
17 Nov 1.6 11:06:52 39° S 11:06:52 39° S 11:10:19 10° ESE visible
18 Nov 2.6 10:45:44 26° SE 10:45:44 26° SE 10:47:50 10° ESE visible
18 Nov 2.2 12:20:53 10° WSW 12:24:10 26° SSW 12:27:27 10° SE visible
